THA111 VTCC-VTBS

Flight info

Callsign THA111
Flight time 0h 59m
Altitude 33000
Route PANTA Y7 BLAFF
Aircraft A20N/M-SDE2E3FGHIRWXY/LB1

Departure

Time 2026-04-17 08:34
Airport Chiang Mai International Airport (VTCC)

Arrival

Time 2026-04-17 09:34
Airport Suvarnabhumi Airport (VTBS)
Time Latitude Longitude Altitude Speed Heading
2026-04-17 08:00 18.76783 98.96735 1025 ft 0 kts 94°
2026-04-17 08:24 18.76784 98.96721 1025 ft 2 kts 94°
2026-04-17 08:24 18.76785 98.96705 1025 ft 2 kts 95°
2026-04-17 08:25 18.76786 98.96692 1025 ft 0 kts 94°
2026-04-17 08:25 18.76786 98.96679 1025 ft 2 kts 72°
2026-04-17 08:25 18.76779 98.96665 1025 ft 2 kts 47°
2026-04-17 08:25 18.76767 98.96655 1025 ft 2 kts 22°
2026-04-17 08:26 18.76756 98.96652 1025 ft 0 kts
2026-04-17 08:26 18.76749 98.96653 1025 ft 0 kts 359°
2026-04-17 08:28 18.76769 98.96653 1025 ft 7 kts 360°
2026-04-17 08:28 18.76825 98.96652 1026 ft 10 kts 360°
2026-04-17 08:29 18.76918 98.96650 1027 ft 14 kts 358°
2026-04-17 08:29 18.77015 98.96640 1027 ft 14 kts 345°
2026-04-17 08:29 18.77096 98.96596 1030 ft 12 kts 330°
2026-04-17 08:29 18.77156 98.96539 1032 ft 10 kts 320°
2026-04-17 08:30 18.77243 98.96521 1033 ft 14 kts 360°
2026-04-17 08:30 18.77371 98.96521 1033 ft 19 kts 360°
2026-04-17 08:30 18.77503 98.96521 1036 ft 17 kts
2026-04-17 08:30 18.77628 98.96521 1038 ft 20 kts 360°
2026-04-17 08:31 18.77767 98.96519 1039 ft 19 kts 359°
2026-04-17 08:31 18.77900 98.96519 1040 ft 18 kts 360°
2026-04-17 08:31 18.78022 98.96519 1043 ft 16 kts 360°
2026-04-17 08:31 18.78130 98.96507 1045 ft 14 kts 339°
2026-04-17 08:32 18.78217 98.96457 1047 ft 13 kts 329°
2026-04-17 08:32 18.78290 98.96412 1048 ft 9 kts 328°
2026-04-17 08:32 18.78295 98.96409 1048 ft 0 kts 327°
2026-04-17 08:32 18.78303 98.96403 1048 ft 5 kts 327°
2026-04-17 08:33 18.78345 98.96373 1049 ft 8 kts 320°
2026-04-17 08:33 18.78355 98.96310 1050 ft 9 kts 226°
2026-04-17 08:33 18.78277 98.96294 1050 ft 16 kts 180°
2026-04-17 08:33 18.78032 98.96294 1047 ft 68 kts 180°
2026-04-17 08:34 18.77326 98.96294 1039 ft 132 kts 180°
2026-04-17 08:34 18.76239 98.96291 1156 ft 170 kts 179°
2026-04-17 08:34 18.75043 98.96287 1685 ft 173 kts 181°
2026-04-17 08:34 18.73856 98.96276 2318 ft 172 kts 179°
2026-04-17 08:35 18.72673 98.96282 2912 ft 172 kts 182°
2026-04-17 08:35 18.71432 98.96284 3160 ft 181 kts 182°
2026-04-17 08:35 18.70145 98.96278 3361 ft 194 kts 182°
2026-04-17 08:35 18.68744 98.96273 3590 ft 207 kts 181°
2026-04-17 08:36 18.67240 98.96268 3831 ft 220 kts 181°
2026-04-17 08:36 18.65643 98.96262 4007 ft 239 kts 181°
2026-04-17 08:36 18.63935 98.96255 4265 ft 255 kts 181°
2026-04-17 08:36 18.62095 98.96251 4599 ft 269 kts 181°
2026-04-17 08:37 18.60187 98.96248 5048 ft 278 kts 181°
2026-04-17 08:37 18.58234 98.96243 5672 ft 280 kts 181°
2026-04-17 08:37 18.56296 98.96239 6300 ft 283 kts 181°
2026-04-17 08:37 18.54299 98.96236 6937 ft 286 kts 181°
2026-04-17 08:38 18.52304 98.96233 7578 ft 290 kts 179°
2026-04-17 08:38 18.50331 98.96641 8195 ft 295 kts 153°
2026-04-17 08:38 18.48747 98.97978 8915 ft 296 kts 128°
2026-04-17 08:38 18.47485 98.99691 9625 ft 299 kts 127°
2026-04-17 08:39 18.46200 99.01447 10312 ft 303 kts 127°
2026-04-17 08:39 18.44891 99.03220 10760 ft 317 kts 127°
2026-04-17 08:39 18.43492 99.05096 11128 ft 334 kts 127°
2026-04-17 08:39 18.42027 99.07050 11728 ft 341 kts 128°
2026-04-17 08:40 18.40549 99.09014 12442 ft 345 kts 128°
2026-04-17 08:40 18.39064 99.10984 13151 ft 348 kts 128°
2026-04-17 08:40 18.37551 99.12992 13837 ft 352 kts 128°
2026-04-17 08:40 18.36033 99.15003 14476 ft 356 kts 128°
2026-04-17 08:41 18.34475 99.17067 15074 ft 360 kts 128°
2026-04-17 08:41 18.32914 99.19134 15649 ft 365 kts 128°
2026-04-17 08:41 18.31338 99.21221 16216 ft 369 kts 128°
2026-04-17 08:41 18.29732 99.23347 16793 ft 372 kts 128°
2026-04-17 08:42 18.28116 99.25486 17343 ft 376 kts 129°
2026-04-17 08:42 18.26479 99.27651 17898 ft 380 kts 129°
2026-04-17 08:42 18.24816 99.29833 18461 ft 383 kts 131°
2026-04-17 08:42 18.22863 99.31727 18996 ft 385 kts 146°
2026-04-17 08:43 18.20495 99.33053 19554 ft 385 kts 160°
2026-04-17 08:43 18.17953 99.33944 20108 ft 387 kts 164°
2026-04-17 08:43 18.15386 99.34773 20618 ft 390 kts 164°
2026-04-17 08:43 18.12753 99.35622 21146 ft 393 kts 164°
2026-04-17 08:44 18.10156 99.36468 21689 ft 394 kts 164°
2026-04-17 08:44 18.07540 99.37331 22225 ft 396 kts 164°
2026-04-17 08:44 18.04884 99.38213 22750 ft 398 kts 164°
2026-04-17 08:44 18.02243 99.39092 23231 ft 402 kts 164°
2026-04-17 08:45 17.99566 99.39983 23689 ft 405 kts 164°
2026-04-17 08:45 17.96833 99.40896 24122 ft 409 kts 164°
2026-04-17 08:45 17.94132 99.41796 24535 ft 412 kts 164°
2026-04-17 08:45 17.91364 99.42720 24950 ft 416 kts 164°
2026-04-17 08:46 17.88623 99.43634 25354 ft 419 kts 164°
2026-04-17 08:46 17.85811 99.44569 25756 ft 422 kts 164°
2026-04-17 08:46 17.83009 99.45500 26147 ft 425 kts 164°
2026-04-17 08:46 17.80166 99.46448 26538 ft 428 kts 164°
2026-04-17 08:47 17.77308 99.47403 26924 ft 431 kts 164°
2026-04-17 08:47 17.74423 99.48366 27310 ft 433 kts 164°
2026-04-17 08:47 17.71560 99.49320 27683 ft 436 kts 165°
2026-04-17 08:47 17.68651 99.50285 28053 ft 438 kts 165°
2026-04-17 08:48 17.65729 99.51251 28401 ft 441 kts 165°
2026-04-17 08:48 17.62797 99.52220 28850 ft 441 kts 165°
2026-04-17 08:48 17.59882 99.53187 29331 ft 440 kts 165°
2026-04-17 08:48 17.56952 99.54159 29836 ft 437 kts 165°
2026-04-17 08:49 17.54073 99.55115 30329 ft 435 kts 165°
2026-04-17 08:49 17.51181 99.56075 30817 ft 433 kts 165°
2026-04-17 08:49 17.48328 99.57022 31268 ft 432 kts 165°
2026-04-17 08:49 17.45434 99.57982 31655 ft 432 kts 166°
2026-04-17 08:50 17.42594 99.58924 31996 ft 433 kts 166°
2026-04-17 08:50 17.39706 99.59881 32340 ft 434 kts 166°
2026-04-17 08:50 17.36796 99.60845 32656 ft 435 kts 166°
2026-04-17 08:51 17.31037 99.62753 32717 ft 436 kts 166°
2026-04-17 08:51 17.25235 99.64674 32721 ft 436 kts 166°
2026-04-17 08:52 17.19449 99.66608 32718 ft 437 kts 166°
2026-04-17 08:52 17.13629 99.68555 32710 ft 437 kts 166°
2026-04-17 08:53 17.07843 99.70475 32703 ft 438 kts 166°
2026-04-17 08:53 17.02030 99.72397 32695 ft 437 kts 166°
2026-04-17 08:54 16.96213 99.74318 32691 ft 436 kts 166°
2026-04-17 08:54 16.90461 99.76216 32690 ft 435 kts 166°
2026-04-17 08:55 16.84643 99.78130 32684 ft 435 kts 166°
2026-04-17 08:55 16.78859 99.80031 32676 ft 435 kts 166°
2026-04-17 08:56 16.73098 99.81924 32670 ft 436 kts 166°
2026-04-17 08:56 16.67280 99.83839 32673 ft 437 kts 166°
2026-04-17 08:57 16.61462 99.85754 32681 ft 436 kts 166°
2026-04-17 08:57 16.55657 99.87663 32688 ft 436 kts 166°
2026-04-17 08:58 16.49888 99.89559 32688 ft 435 kts 166°
2026-04-17 08:58 16.44109 99.91458 32687 ft 436 kts 166°
2026-04-17 08:59 16.38318 99.93362 32684 ft 436 kts 166°
2026-04-17 08:59 16.32501 99.95271 32685 ft 437 kts 166°
2026-04-17 09:00 16.26672 99.97190 32677 ft 438 kts 166°
2026-04-17 09:00 16.20884 99.99099 32665 ft 438 kts 166°
2026-04-17 09:01 16.15042 100.01025 32664 ft 437 kts 166°
2026-04-17 09:01 16.09243 100.02935 32665 ft 436 kts 166°
2026-04-17 09:02 16.03483 100.04833 32660 ft 435 kts 166°
2026-04-17 09:02 15.97682 100.06743 32659 ft 435 kts 166°
2026-04-17 09:03 15.91890 100.08649 32670 ft 435 kts 166°
2026-04-17 09:03 15.86133 100.10540 32673 ft 435 kts 166°
2026-04-17 09:04 15.80317 100.12444 32676 ft 435 kts 166°
2026-04-17 09:04 15.74544 100.14338 32675 ft 435 kts 166°
2026-04-17 09:05 15.68787 100.16228 32675 ft 435 kts 166°
2026-04-17 09:05 15.63006 100.18125 32677 ft 434 kts 166°
2026-04-17 09:06 15.57235 100.20018 32678 ft 434 kts 166°
2026-04-17 09:06 15.51439 100.21918 32677 ft 434 kts 166°
2026-04-17 09:07 15.45689 100.23804 32673 ft 434 kts 165°
2026-04-17 09:07 15.39925 100.25697 32671 ft 434 kts 165°
2026-04-17 09:08 15.34188 100.27579 32416 ft 428 kts 165°
2026-04-17 09:08 15.31351 100.28522 31872 ft 428 kts 164°
2026-04-17 09:08 15.28543 100.29622 31262 ft 429 kts 160°
2026-04-17 09:08 15.25852 100.30898 30673 ft 430 kts 156°
2026-04-17 09:09 15.23205 100.32389 30019 ft 432 kts 152°
2026-04-17 09:09 15.20627 100.33962 29327 ft 434 kts 152°
2026-04-17 09:09 15.18013 100.35576 28611 ft 436 kts 152°
2026-04-17 09:09 15.15427 100.37171 27920 ft 437 kts 151°
2026-04-17 09:10 15.10224 100.40372 26902 ft 429 kts 151°
2026-04-17 09:10 15.07666 100.41946 26419 ft 425 kts 151°
2026-04-17 09:10 15.05135 100.43499 25930 ft 421 kts 150°
2026-04-17 09:11 15.02627 100.45038 25441 ft 418 kts 150°
2026-04-17 09:11 15.00125 100.46573 24956 ft 414 kts 150°
2026-04-17 09:11 14.97667 100.48080 24476 ft 411 kts 150°
2026-04-17 09:11 14.95222 100.49580 23994 ft 408 kts 149°
2026-04-17 09:12 14.92763 100.51087 23504 ft 405 kts 149°
2026-04-17 09:12 14.90376 100.52550 23016 ft 402 kts 149°
2026-04-17 09:12 14.87967 100.54022 22536 ft 398 kts 149°
2026-04-17 09:12 14.85584 100.55475 22057 ft 395 kts 149°
2026-04-17 09:13 14.83232 100.56914 21567 ft 392 kts 149°
2026-04-17 09:13 14.80895 100.58347 21080 ft 389 kts 149°
2026-04-17 09:13 14.78586 100.59761 20582 ft 387 kts 149°
2026-04-17 09:13 14.76265 100.61182 20083 ft 385 kts 149°
2026-04-17 09:14 14.73958 100.62583 19583 ft 383 kts 150°
2026-04-17 09:14 14.71578 100.63789 19091 ft 380 kts 157°
2026-04-17 09:14 14.69097 100.64728 18605 ft 378 kts 162°
2026-04-17 09:14 14.66593 100.65520 18122 ft 376 kts 163°
2026-04-17 09:15 14.64102 100.66294 17661 ft 373 kts 163°
2026-04-17 09:15 14.61614 100.67060 17189 ft 371 kts 163°
2026-04-17 09:15 14.59147 100.67820 16742 ft 368 kts 163°
2026-04-17 09:15 14.56699 100.68574 16297 ft 365 kts 163°
2026-04-17 09:16 14.54273 100.69321 15884 ft 361 kts 163°
2026-04-17 09:16 14.51868 100.70061 15498 ft 358 kts 163°
2026-04-17 09:16 14.49492 100.70792 15035 ft 356 kts 163°
2026-04-17 09:16 14.47128 100.71519 14814 ft 346 kts 163°
2026-04-17 09:17 14.44784 100.71969 14618 ft 335 kts 178°
2026-04-17 09:17 14.42512 100.71758 14458 ft 324 kts 192°
2026-04-17 09:17 14.40348 100.71210 14192 ft 319 kts 195°
2026-04-17 09:17 14.38195 100.70613 13816 ft 317 kts 195°
2026-04-17 09:18 14.36080 100.70028 13434 ft 315 kts 195°
2026-04-17 09:18 14.33942 100.69448 13065 ft 314 kts 194°
2026-04-17 09:18 14.31835 100.68885 12687 ft 312 kts 194°
2026-04-17 09:18 14.29738 100.68330 12301 ft 311 kts 194°
2026-04-17 09:19 14.27635 100.67776 11932 ft 308 kts 194°
2026-04-17 09:19 14.25557 100.67230 11564 ft 307 kts 195°
2026-04-17 09:19 14.23508 100.66689 11187 ft 306 kts 194°
2026-04-17 09:19 14.21453 100.66148 10829 ft 304 kts 194°
2026-04-17 09:20 14.19406 100.65608 10470 ft 302 kts 194°
2026-04-17 09:20 14.17350 100.65066 10101 ft 301 kts 194°
2026-04-17 09:20 14.15337 100.64536 9734 ft 299 kts 194°
2026-04-17 09:20 14.13320 100.64007 9361 ft 298 kts 194°
2026-04-17 09:21 14.11315 100.63481 9032 ft 295 kts 194°
2026-04-17 09:21 14.09307 100.62954 8961 ft 295 kts 195°
2026-04-17 09:21 14.07378 100.62447 8947 ft 280 kts 195°
2026-04-17 09:21 14.05526 100.61961 8940 ft 265 kts 195°
2026-04-17 09:22 14.03762 100.61496 8948 ft 262 kts 195°
2026-04-17 09:22 14.01967 100.61057 8945 ft 262 kts 187°
2026-04-17 09:22 14.00192 100.61304 8932 ft 259 kts 151°
2026-04-17 09:22 13.98869 100.62494 8844 ft 252 kts 120°
2026-04-17 09:23 13.98250 100.64181 8503 ft 251 kts 102°
2026-04-17 09:23 13.97852 100.65937 8122 ft 253 kts 102°
2026-04-17 09:23 13.97433 100.67702 7794 ft 253 kts 103°
2026-04-17 09:23 13.97044 100.69456 7470 ft 252 kts 94°
2026-04-17 09:24 13.97359 100.71196 7120 ft 250 kts 59°
2026-04-17 09:24 13.98541 100.72457 6838 ft 246 kts 28°
2026-04-17 09:24 14.00130 100.73019 6528 ft 244 kts 13°
2026-04-17 09:24 14.01804 100.73441 6146 ft 247 kts 18°
2026-04-17 09:25 14.03219 100.74372 5960 ft 243 kts 54°
2026-04-17 09:25 14.03857 100.75943 5937 ft 240 kts 85°
2026-04-17 09:25 14.03663 100.77647 5632 ft 240 kts 106°
2026-04-17 09:25 14.03199 100.79296 5229 ft 245 kts 107°
2026-04-17 09:26 14.02459 100.80856 4966 ft 239 kts 136°
2026-04-17 09:26 14.01051 100.81690 4962 ft 234 kts 170°
2026-04-17 09:26 13.99497 100.81674 4961 ft 217 kts 191°
2026-04-17 09:26 13.98057 100.81320 4943 ft 202 kts 196°
2026-04-17 09:27 13.96732 100.80929 4952 ft 197 kts 196°
2026-04-17 09:27 13.95414 100.80541 4946 ft 197 kts 196°
2026-04-17 09:27 13.94070 100.80160 4740 ft 198 kts 195°
2026-04-17 09:27 13.92750 100.79799 4498 ft 196 kts 194°
2026-04-17 09:28 13.91438 100.79449 4247 ft 195 kts 194°
2026-04-17 09:28 13.90130 100.79107 4061 ft 185 kts 194°
2026-04-17 09:28 13.88911 100.78791 3774 ft 176 kts 194°
2026-04-17 09:28 13.87768 100.78497 3524 ft 165 kts 194°
2026-04-17 09:29 13.86676 100.78217 3300 ft 153 kts 194°
2026-04-17 09:29 13.85698 100.77963 3082 ft 140 kts 194°
2026-04-17 09:29 13.84746 100.77716 2924 ft 138 kts 194°
2026-04-17 09:29 13.83819 100.77474 2748 ft 137 kts 193°
2026-04-17 09:30 13.82899 100.77234 2571 ft 136 kts 193°
2026-04-17 09:30 13.81983 100.76994 2388 ft 135 kts 193°
2026-04-17 09:30 13.81068 100.76753 2208 ft 134 kts 193°
2026-04-17 09:30 13.80168 100.76517 2018 ft 133 kts 193°
2026-04-17 09:31 13.79261 100.76279 1843 ft 132 kts 193°
2026-04-17 09:31 13.78377 100.76046 1661 ft 132 kts 193°
2026-04-17 09:31 13.77475 100.75809 1481 ft 131 kts 193°
2026-04-17 09:31 13.76586 100.75575 1309 ft 131 kts 193°
2026-04-17 09:32 13.75700 100.75343 1137 ft 131 kts 194°
2026-04-17 09:32 13.74825 100.75113 965 ft 130 kts 193°
2026-04-17 09:32 13.73933 100.74878 774 ft 130 kts 193°
2026-04-17 09:32 13.73051 100.74648 599 ft 130 kts 194°
2026-04-17 09:33 13.72179 100.74431 439 ft 130 kts 195°
2026-04-17 09:33 13.71293 100.74186 259 ft 130 kts 196°
2026-04-17 09:33 13.70419 100.73949 126 ft 130 kts 194°
2026-04-17 09:33 13.69544 100.73725 18 ft 121 kts 195°
2026-04-17 09:34 13.68848 100.73540 15 ft 78 kts 194°
2026-04-17 09:34 13.68483 100.73450 15 ft 30 kts 185°
2026-04-17 09:34 13.68302 100.73473 15 ft 11 kts 165°
2026-04-17 09:34 13.68230 100.73506 14 ft 11 kts 124°
2026-04-17 09:35 13.68258 100.73572 14 ft 12 kts 21°
2026-04-17 09:35 13.68279 100.73579 14 ft 0 kts 14°
2026-04-17 09:35 13.68295 100.73583 14 ft 7 kts 14°
2026-04-17 09:36 13.68386 100.73606 15 ft 17 kts 14°
2026-04-17 09:36 13.68507 100.73638 14 ft 17 kts 14°
2026-04-17 09:36 13.68629 100.73670 14 ft 18 kts 14°
2026-04-17 09:36 13.68733 100.73698 15 ft 13 kts 14°
2026-04-17 09:37 13.68792 100.73759 15 ft 13 kts 94°
2026-04-17 09:37 13.68768 100.73855 14 ft 14 kts 106°
2026-04-17 09:37 13.68742 100.73953 15 ft 14 kts 105°
2026-04-17 09:37 13.68715 100.74054 14 ft 14 kts 106°
2026-04-17 09:38 13.68689 100.74159 15 ft 15 kts 104°
2026-04-17 09:38 13.68662 100.74265 15 ft 15 kts 105°
2026-04-17 09:38 13.68682 100.74361 15 ft 15 kts 31°
2026-04-17 09:38 13.68795 100.74395 15 ft 20 kts 14°
2026-04-17 09:39 13.68932 100.74431 14 ft 20 kts 15°
2026-04-17 09:39 13.69047 100.74461 14 ft 11 kts 14°
2026-04-17 09:39 13.69116 100.74469 14 ft 8 kts 355°
2026-04-17 09:39 13.69177 100.74474 14 ft 6 kts 15°
2026-04-17 09:40 13.69211 100.74483 14 ft 4 kts 14°
2026-04-17 09:40 13.69222 100.74486 14 ft 0 kts 14°